DL6MAA-11 Weather Reports


Display with metric or nautical units.
time (UTC)temp
F
wind
direction
speed
MPH
gust
MPH
rain 1hr
in
rain 24hr
in
rain mn
in
humidity
%
barometer
mb
20260509024142 48 355 0.0 0.0 0.00 0.00 0.00 76 1014.6
20260509023648 48 360 0.0 0.0 0.00 0.00 0.00 76 1014.6
20260509023135 48 60 0.0 0.0 0.00 0.00 0.00 76 1014.6
20260509022644 48 360 0.0 0.0 0.00 0.00 0.00 75 1014.5
20260509022150 48 60 0.0 0.0 0.00 0.00 0.00 75 1014.5
20260509021640 48 61 0.0 0.0 0.00 0.00 0.00 75 1014.5
20260509021145 48 61 0.0 0.0 0.00 0.00 0.00 75 1014.4
20260509020648 48 360 0.0 0.0 0.00 0.00 0.00 75 1014.4
20260509020149 48 61 0.0 0.0 0.00 0.00 0.00 75 1014.4
20260509015655 48 360 0.0 0.0 0.00 0.00 0.00 75 1014.4
20260509015154 48 61 0.0 0.0 0.00 0.00 0.00 75 1014.4
20260509014649 48 60 0.0 0.0 0.00 0.00 0.00 75 1014.4
20260509014142 48 60 0.0 0.0 0.00 0.00 0.00 75 1014.4
20260509013645 48 61 0.0 0.0 0.00 0.00 0.00 75 1014.4
20260509013149 48 61 0.0 0.0 0.00 0.00 0.00 75 1014.4
20260509012655 48 61 0.0 0.0 0.00 0.00 0.00 74 1014.2
20260509012143 48 60 0.0 0.0 0.00 0.00 0.00 74 1014.2
20260509011649 48 60 0.0 0.0 0.00 0.00 0.00 74 1014.2
20260509011157 48 61 0.0 0.0 0.00 0.00 0.00 74 1014.2
20260509010641 48 60 0.0 0.0 0.00 0.00 0.00 74 1014.2
20260509010144 48 360 0.0 0.0 0.00 0.00 0.00 75 1014.2
20260509005650 48 61 0.0 0.0 0.00 0.00 0.00 75 1014.2
20260509005139 48 61 0.0 0.0 0.00 0.00 0.00 75 1014.2
20260509004639 48 61 0.0 0.0 0.00 0.00 0.00 75 1014.2
20260509004142 48 61 0.0 0.0 0.00 0.00 0.00 75 1014.1
20260509003643 48 61 0.0 0.0 0.00 0.00 0.00 75 1014.1
20260509003147 48 360 0.0 0.0 0.00 0.00 0.00 74 1014.1
20260509002650 48 60 0.0 0.0 0.00 0.00 0.00 73 1014.4
20260509002153 48 60 0.0 0.0 0.00 0.00 0.00 73 1014.4
20260509001645 48 60 0.0 0.0 0.00 0.00 0.00 73 1014.4
20260509001144 48 60 0.0 0.0 0.00 0.00 0.00 73 1014.5
20260509000650 48 59 0.0 0.0 0.00 0.00 0.00 72 1014.5
20260509000135 48 59 0.0 0.0 0.00 0.00 0.00 72 1014.5
20260508235638 48 59 0.0 0.0 0.00 0.00 0.00 71 1014.5
20260508235140 48 59 0.0 0.0 0.00 0.00 0.00 71 1014.5
20260508234646 49 360 0.0 0.0 0.00 0.00 0.00 71 1014.5
20260508234155 49 71 0.0 0.0 0.00 0.00 0.00 71 1014.5
20260508233657 49 59 0.0 0.0 0.00 0.00 0.00 71 1014.5
20260508233156 49 59 0.0 0.0 0.00 0.00 0.00 71 1014.5
20260508232642 49 59 0.0 0.0 0.00 0.00 0.00 71 1014.5
20260508232151 49 59 0.0 0.0 0.00 0.00 0.00 71 1014.5
20260508231649 49 59 0.0 0.0 0.00 0.00 0.00 71 1014.5
20260508231155 49 59 0.0 0.0 0.00 0.00 0.00 70 1014.8
20260508230657 49 59 0.0 0.0 0.00 0.00 0.00 70 1014.8
20260508230147 49 59 0.0 0.0 0.00 0.00 0.00 70 1014.8
20260508225638 50 59 0.0 0.0 0.00 0.00 0.00 70 1014.7
20260508225147 50 59 0.0 0.0 0.00 0.00 0.00 70 1014.7
20260508224652 50 59 0.0 0.0 0.00 0.00 0.00 70 1014.7
20260508224140 50 59 0.0 0.0 0.00 0.00 0.00 71 1014.6
20260508223641 50 360 0.0 0.0 0.00 0.00 0.00 70 1014.6
20260508223147 50 59 0.0 0.0 0.00 0.00 0.00 70 1014.6
20260508222654 50 60 0.0 0.0 0.00 0.00 0.00 70 1014.6
20260508222154 50 60 0.0 0.0 0.00 0.00 0.00 70 1014.6
20260508221640 50 60 0.0 0.0 0.00 0.00 0.00 70 1014.6
20260508221142 50 60 0.0 0.0 0.00 0.00 0.00 70 1014.6
20260508220648 51 60 0.0 0.0 0.00 0.00 0.00 69 1014.6
20260508220152 51 60 0.0 0.0 0.00 0.00 0.00 69 1014.6
20260508215636 51 60 0.0 0.0 0.00 0.00 0.00 69 1014.5
20260508215138 51 59 0.0 0.0 0.00 0.00 0.00 68 1014.5
20260508214643 51 67 0.0 0.0 0.00 0.00 0.00 68 1014.5
20260508214148 51 60 0.0 0.0 0.00 0.00 0.00 68 1014.4
20260508213650 51 60 0.0 0.0 0.00 0.00 0.00 67 1014.4
20260508213139 52 60 0.0 0.0 0.00 0.00 0.00 67 1014.4
20260508212639 52 59 0.0 0.0 0.00 0.00 0.00 67 1014.4
20260508212148 52 59 0.0 0.0 0.00 0.00 0.00 67 1014.4
20260508211652 52 59 0.0 0.0 0.00 0.00 0.00 67 1014.4
20260508211152 52 60 0.0 0.0 0.00 0.00 0.00 67 1013.7
20260508210637 52 360 0.0 0.0 0.00 0.00 0.00 67 1013.7
20260508210141 53 63 0.0 0.0 0.00 0.00 0.00 66 1013.7
20260508205645 53 60 0.0 0.0 0.00 0.00 0.00 66 1013.7
20260508205145 53 60 0.0 0.0 0.00 0.00 0.00 66 1013.7
20260508204655 53 60 0.0 0.0 0.00 0.00 0.00 66 1013.7
20260508204137 53 60 0.0 0.0 0.00 0.00 0.00 65 1013.6
20260508203648 54 60 0.0 0.0 0.00 0.00 0.00 65 1013.6
20260508203143 54 61 0.0 0.0 0.00 0.00 0.00 65 1013.6
20260508202639 54 360 0.0 0.0 0.00 0.00 0.00 64 1014.3
20260508202153 54 360 0.0 0.0 0.00 0.00 0.00 63 1014.3
20260508201639 55 360 0.0 0.0 0.00 0.00 0.00 63 1014.3
20260508201155 55 61 0.0 0.0 0.00 0.00 0.00 63 1013.5
20260508200654 55 64 0.0 0.0 0.00 0.00 0.00 63 1013.5
20260508200140 55 64 0.0 0.0 0.00 0.00 0.00 63 1013.5
20260508195645 55 64 0.0 0.0 0.00 0.00 0.00 63 1013.2
20260508195152 56 69 0.0 0.0 0.00 0.00 0.00 62 1013.2
20260508194636 56 69 0.0 0.0 0.00 0.00 0.00 62 1013.2
20260508194142 56 57 0.0 0.0 0.00 0.00 0.00 62 1013.2
20260508193638 56 49 0.0 0.0 0.00 0.00 0.00 61 1013.2
20260508193140 57 49 0.0 0.0 0.00 0.00 0.00 61 1013.2
20260508192649 57 48 0.0 0.0 0.00 0.00 0.00 61 1013.6
20260508192152 57 55 0.0 0.0 0.00 0.00 0.00 60 1013.6
20260508191655 58 57 0.0 0.0 0.00 0.00 0.00 60 1013.6
20260508191140 58 59 0.0 0.0 0.00 0.00 0.00 60 1012.8
20260508190649 58 67 0.0 0.0 0.00 0.00 0.00 59 1012.8
20260508190145 58 82 0.0 0.0 0.00 0.00 0.00 59 1012.8
20260508185647 59 57 0.0 0.0 0.00 0.00 0.00 59 1012.7
20260508185152 59 54 0.0 0.0 0.00 0.00 0.00 58 1012.7
20260508184655 59 53 0.0 0.0 0.00 0.00 0.00 58 1012.7
20260508184155 60 59 0.0 0.0 0.00 0.00 0.00 58 1012.6
20260508183640 60 64 0.0 0.0 0.00 0.00 0.00 58 1012.6
20260508183143 60 60 0.0 0.0 0.00 0.00 0.00 57 1012.6
20260508182646 60 69 0.0 0.0 0.00 0.00 0.00 57 1012.2
20260508182154 60 67 0.0 0.0 0.00 0.00 0.00 57 1012.2
20260508181640 60 42 1.0 0.0 0.00 0.00 0.00 57 1012.2
20260508181138 61 82 1.0 0.0 0.00 0.00 0.00 56 1012.3
20260508180641 61 78 1.0 0.0 0.00 0.00 0.00 56 1012.3
20260508180150 61 53 1.0 0.0 0.00 0.00 0.00 55 1012.3
20260508175649 61 67 1.0 0.0 0.00 0.00 0.00 55 1012.0
20260508175149 61 73 1.0 0.0 0.00 0.00 0.00 55 1012.0
20260508174638 62 68 2.0 0.0 0.00 0.00 0.00 54 1012.0
20260508174142 62 71 2.0 0.0 0.00 0.00 0.00 54 1011.9
20260508173649 62 62 1.0 0.0 0.00 0.00 0.00 54 1011.9
20260508173152 62 15 1.0 0.0 0.00 0.00 0.00 53 1011.9
20260508172657 62 60 1.0 0.0 0.00 0.00 0.00 53 1011.7
20260508172158 63 86 2.0 0.0 0.00 0.00 0.00 53 1011.7
20260508171640 63 86 3.0 0.0 0.00 0.00 0.00 51 1011.7
20260508171143 63 42 2.0 0.0 0.00 0.00 0.00 51 1011.9
20260508170649 64 63 1.0 0.0 0.00 0.00 0.00 51 1011.9
20260508170153 64 17 1.0 0.0 0.00 0.00 0.00 52 1011.9
20260508165654 64 14 2.0 0.0 0.00 0.00 0.00 51 1011.7
20260508165141 64 22 2.0 0.0 0.00 0.00 0.00 50 1011.7
20260508164644 65 60 2.0 0.0 0.00 0.00 0.00 50 1011.7
20260508164150 65 38 1.0 0.0 0.00 0.00 0.00 50 1011.8
20260508163655 65 63 1.0 0.0 0.00 0.00 0.00 49 1011.8
20260508163157 65 96 1.0 0.0 0.00 0.00 0.00 50 1011.8
20260508162639 65 103 2.0 0.0 0.00 0.00 0.00 49 1011.7
20260508162144 65 66 2.0 0.0 0.00 0.00 0.00 49 1011.7
20260508161649 66 54 2.0 0.0 0.00 0.00 0.00 49 1011.7
20260508161155 66 90 2.0 0.0 0.00 0.00 0.00 48 1011.9
20260508160643 67 15 1.0 0.0 0.00 0.00 0.00 47 1011.9
20260508160151 68 360 1.0 0.0 0.00 0.00 0.00 48 1011.9
20260508155654 67 360 1.0 0.0 0.00 0.00 0.00 49 1011.9
20260508155157 68 67 2.0 0.0 0.00 0.00 0.00 48 1011.9
20260508154647 68 104 4.0 0.0 0.00 0.00 0.00 48 1011.9
20260508154139 67 92 4.0 0.0 0.00 0.00 0.00 48 1011.8
20260508153645 68 98 1.0 0.0 0.00 0.00 0.00 48 1011.8
20260508153152 68 69 1.0 0.0 0.00 0.00 0.00 47 1011.8
20260508152643 67 60 1.0 0.0 0.00 0.00 0.00 47 1012.1
20260508152147 67 56 0.0 0.0 0.00 0.00 0.00 49 1012.1
20260508151656 66 90 1.0 0.0 0.00 0.00 0.00 50 1012.1
20260508151143 66 89 1.0 0.0 0.00 0.00 0.00 49 1012.2
20260508150641 66 335 0.0 0.0 0.00 0.00 0.00 49 1012.2
20260508150144 64 68 0.0 0.0 0.00 0.00 0.00 51 1012.2
20260508145651 64 46 1.0 0.0 0.00 0.00 0.00 51 1012.2
20260508145153 64 32 2.0 0.0 0.00 0.00 0.00 50 1012.2
20260508144655 65 66 3.0 0.0 0.00 0.00 0.00 49 1012.2
20260508144156 66 43 2.0 0.0 0.00 0.00 0.00 49 1012.1
20260508143641 66 36 2.0 0.0 0.00 0.00 0.00 49 1012.1
20260508143152 67 55 1.0 0.0 0.00 0.00 0.00 48 1012.1
20260508142654 68 53 1.0 0.0 0.00 0.00 0.00 48 1012.3
20260508142159 67 95 1.0 0.0 0.00 0.00 0.00 49 1012.3
20260508141642 67 56 1.0 0.0 0.00 0.00 0.00 49 1012.3
20260508141147 66 10 1.0 0.0 0.00 0.00 0.00 49 1012.2
20260508140652 67 53 1.0 0.0 0.00 0.00 0.00 48 1012.2
20260508140158 67 10 1.0 0.0 0.00 0.00 0.00 50 1012.2
20260508135650 68 30 2.0 0.0 0.00 0.00 0.00 48 1012.3
20260508135141 68 69 2.0 0.0 0.00 0.00 0.00 47 1012.3
20260508134646 67 56 1.0 0.0 0.00 0.00 0.00 50 1012.3
20260508134154 66 360 1.0 0.0 0.00 0.00 0.00 50 1012.6
20260508133645 67 15 1.0 0.0 0.00 0.00 0.00 47 1012.6
20260508133149 67 61 1.0 0.0 0.00 0.00 0.00 51 1012.6
20260508132654 66 18 2.0 0.0 0.00 0.00 0.00 50 1012.4
20260508132157 66 26 2.0 0.0 0.00 0.00 0.00 50 1012.4
20260508131658 67 45 2.0 0.0 0.00 0.00 0.00 53 1012.4
20260508131200 66 75 1.0 0.0 0.00 0.00 0.00 53 1012.9
20260508130644 65 32 1.0 0.0 0.00 0.00 0.00 51 1012.9
20260508130153 65 35 1.0 0.0 0.00 0.00 0.00 52 1012.9
20260508125638 64 360 2.0 0.0 0.00 0.00 0.00 54 1012.9
20260508125147 64 61 2.0 0.0 0.00 0.00 0.00 51 1012.9
20260508124649 66 60 1.0 0.0 0.00 0.00 0.00 52 1012.9
20260508124143 66 57 1.0 0.0 0.00 0.00 0.00 52 1012.9
20260508123652 66 340 1.0 0.0 0.00 0.00 0.00 52 1012.9
20260508123158 66 86 1.0 0.0 0.00 0.00 0.00 52 1012.9
20260508122642 65 360 1.0 0.0 0.00 0.00 0.00 54 1013.1
20260508122147 64 55 1.0 0.0 0.00 0.00 0.00 54 1013.1
20260508121652 64 360 1.0 0.0 0.00 0.00 0.00 53 1013.1
20260508121200 65 28 1.0 0.0 0.00 0.00 0.00 55 1012.8
20260508120645 65 12 0.0 0.0 0.00 0.00 0.00 53 1012.8
20260508120150 65 15 1.0 0.0 0.00 0.00 0.00 53 1012.8
20260508115659 66 355 2.0 0.0 0.00 0.00 0.00 53 1012.7
20260508115147 66 117 2.0 0.0 0.00 0.00 0.00 52 1012.7
20260508114656 66 21 1.0 0.0 0.00 0.00 0.00 54 1012.7
20260508114141 65 56 1.0 0.0 0.00 0.00 0.00 56 1012.8
20260508113650 65 56 1.0 0.0 0.00 0.00 0.00 55 1012.8
20260508113142 65 106 2.0 0.0 0.00 0.00 0.00 55 1012.8
20260508112649 65 63 2.0 0.0 0.00 0.00 0.00 55 1013.1
20260508112154 65 360 2.0 0.0 0.00 0.00 0.00 55 1013.1
20260508111656 64 71 2.0 0.0 0.00 0.00 0.00 56 1013.1
20260508111200 64 68 2.0 0.0 0.00 0.00 0.00 58 1013.1
20260508110642 64 79 2.0 0.0 0.00 0.00 0.00 55 1013.1
20260508110200 64 82 2.0 0.0 0.00 0.00 0.00 57 1013.1
20260508105648 63 101 2.0 0.0 0.00 0.00 0.00 57 1013.3
20260508105155 63 29 1.0 0.0 0.00 0.00 0.00 58 1013.3
20260508104637 63 65 1.0 0.0 0.00 0.00 0.00 58 1013.3
20260508104153 63 92 2.0 0.0 0.00 0.00 0.00 59 1013.4
20260508103639 63 79 3.0 0.0 0.00 0.00 0.00 59 1013.4
20260508103157 62 69 3.0 0.0 0.00 0.00 0.00 60 1013.4
20260508102640 62 77 2.0 0.0 0.00 0.00 0.00 60 1013.4
20260508102148 61 13 1.0 0.0 0.00 0.00 0.00 63 1013.4
20260508101658 61 360 1.0 0.0 0.00 0.00 0.00 62 1013.4
20260508101156 61 44 1.0 0.0 0.00 0.00 0.00 61 1014.3
20260508100644 62 9 1.0 0.0 0.00 0.00 0.00 61 1014.3
20260508100149 62 111 1.0 0.0 0.00 0.00 0.00 61 1014.3
20260508095648 62 26 1.0 0.0 0.00 0.00 0.00 61 1013.6
20260508095155 61 57 1.0 0.0 0.00 0.00 0.00 64 1013.6
20260508094642 59 39 1.0 0.0 0.00 0.00 0.00 65 1013.6
20260508094144 59 89 1.0 0.0 0.00 0.00 0.00 64 1013.4
20260508093650 59 49 1.0 0.0 0.00 0.00 0.00 63 1013.4
20260508093158 60 105 1.0 0.0 0.00 0.00 0.00 65 1013.4
20260508092656 59 111 1.0 0.0 0.00 0.00 0.00 69 1013.6
20260508092152 58 113 1.0 0.0 0.00 0.00 0.00 68 1013.6
20260508091644 58 113 1.0 0.0 0.00 0.00 0.00 68 1013.6
20260508091152 57 78 1.0 0.0 0.00 0.00 0.00 68 1013.7
20260508090639 57 62 1.0 0.0 0.00 0.00 0.00 68 1013.7
20260508090139 57 360 1.0 0.0 0.00 0.00 0.00 70 1013.7
20260508085651 56 33 0.0 0.0 0.00 0.00 0.00 71 1013.4
20260508085145 56 32 2.0 0.0 0.00 0.00 0.00 67 1013.4
20260508084639 58 46 1.0 0.0 0.00 0.00 0.00 68 1013.4
20260508084148 57 67 1.0 0.0 0.00 0.00 0.00 70 1013.7
20260508083650 56 86 2.0 0.0 0.00 0.00 0.00 70 1013.7
20260508083150 55 50 2.0 0.0 0.00 0.00 0.00 71 1013.7
20260508082639 55 87 0.0 0.0 0.00 0.00 0.00 73 1013.6
20260508082145 54 61 1.0 0.0 0.00 0.00 0.00 74 1013.6
20260508081648 54 58 1.0 0.0 0.00 0.00 0.00 73 1013.6
20260508081149 54 64 1.0 0.0 0.00 0.00 0.00 74 1014.0
20260508080653 54 100 1.0 0.0 0.00 0.00 0.00 74 1014.0
20260508080155 54 29 1.0 0.0 0.00 0.00 0.00 75 1014.0
20260508075641 53 84 1.0 0.0 0.00 0.00 0.00 76 1014.0
20260508075147 52 32 1.0 0.0 0.00 0.00 0.00 78 1014.0
20260508074638 52 62 1.0 0.0 0.00 0.00 0.00 76 1014.0
20260508074200 53 56 1.0 0.0 0.00 0.00 0.00 77 1014.2
20260508073639 52 77 1.0 0.0 0.00 0.00 0.00 78 1014.2
20260508073144 51 42 0.0 0.0 0.00 0.00 0.00 79 1014.2
20260508072643 51 57 0.0 0.0 0.00 0.00 0.00 78 1014.1
20260508072145 50 10 0.0 0.0 0.00 0.00 0.00 79 1014.1
20260508071653 50 351 0.0 0.0 0.00 0.00 0.00 79 1014.1
20260508071156 50 59 1.0 0.0 0.00 0.00 0.00 81 1013.9
20260508070658 50 5 1.0 0.0 0.00 0.00 0.00 79 1013.9
20260508070147 49 355 0.0 0.0 0.00 0.00 0.00 82 1013.9
20260508065655 48 53 0.0 0.0 0.00 0.00 0.00 81 1014.1
20260508065149 49 56 0.0 0.0 0.00 0.00 0.00 80 1014.1
20260508064652 49 59 0.0 0.0 0.00 0.00 0.00 80 1014.1
20260508064157 49 38 0.0 0.0 0.00 0.00 0.00 81 1013.9
20260508063657 48 21 0.0 0.0 0.00 0.00 0.00 80 1013.9
20260508063138 48 360 0.0 0.0 0.00 0.00 0.00 79 1013.9
20260508062648 48 46 0.0 0.0 0.00 0.00 0.00 81 1013.8
20260508062153 48 49 0.0 0.0 0.00 0.00 0.00 82 1013.8
20260508061651 48 49 0.0 0.0 0.00 0.00 0.00 83 1013.8
20260508061156 47 53 0.0 0.0 0.00 0.00 0.00 84 1013.9
20260508060648 46 46 0.0 0.0 0.00 0.00 0.00 85 1013.9
20260508060152 46 47 0.0 0.0 0.00 0.00 0.00 85 1013.9
20260508055657 46 46 0.0 0.0 0.00 0.00 0.00 86 1013.8
20260508055146 46 46 0.0 0.0 0.00 0.00 0.00 87 1013.8
20260508054652 45 46 0.0 0.0 0.00 0.00 0.00 87 1013.8
20260508054150 44 46 0.0 0.0 0.00 0.00 0.00 87 1013.0
20260508053654 44 46 0.0 0.0 0.00 0.00 0.00 87 1013.0
20260508053142 43 46 0.0 0.0 0.00 0.00 0.00 87 1013.0
20260508052648 43 46 0.0 0.0 0.00 0.00 0.00 86 1013.0
20260508052200 42 46 0.0 0.0 0.00 0.00 0.00 86 1013.0
20260508051650 42 46 0.0 0.0 0.00 0.00 0.00 86 1013.0
20260508051158 42 46 0.0 0.0 0.00 0.00 0.00 86 1012.8
20260508050643 42 360 0.0 0.0 0.00 0.00 0.00 86 1012.8
20260508050147 41 46 0.0 0.0 0.00 0.00 0.00 86 1012.8
20260508045650 41 37 0.0 0.0 0.00 0.00 0.00 86 1012.9
20260508045158 40 44 0.0 0.0 0.00 0.00 0.00 85 1012.9
20260508044659 39 41 0.0 0.0 0.00 0.00 0.00 85 1012.9
20260508044147 38 41 0.0 0.0 0.00 0.00 0.00 82 1012.8
20260508043656 38 41 0.0 0.0 0.00 0.00 0.00 82 1012.8
20260508043142 38 42 0.0 0.0 0.00 0.00 0.00 81 1012.8
20260508042648 38 42 0.0 0.0 0.00 0.00 0.00 81 1012.6
20260508042153 38 41 0.0 0.0 0.00 0.00 0.00 81 1012.6
20260508041655 38 41 0.0 0.0 0.00 0.00 0.00 81 1012.6
20260508041139 38 42 0.0 0.0 0.00 0.00 0.00 81 1012.5
20260508040647 38 41 0.0 0.0 0.00 0.00 0.00 81 1012.5
20260508040156 38 42 0.0 0.0 0.00 0.00 0.00 81 1012.5
20260508035643 38 41 0.0 0.0 0.00 0.00 0.00 81 1012.4
20260508035156 39 42 0.0 0.0 0.00 0.00 0.00 81 1012.4
20260508034642 39 360 0.0 0.0 0.00 0.00 0.00 81 1012.4
20260508034144 39 42 0.0 0.0 0.00 0.00 0.00 81 1012.3
20260508033655 39 41 0.0 0.0 0.00 0.00 0.00 81 1012.3
20260508033144 39 42 0.0 0.0 0.00 0.00 0.00 81 1012.3
20260508032656 39 42 0.0 0.0 0.00 0.00 0.00 81 1012.1
20260508032141 39 41 0.0 0.0 0.00 0.00 0.00 81 1012.1
20260508031655 39 41 0.0 0.0 0.00 0.00 0.00 81 1012.1
20260508031150 40 42 0.0 0.0 0.00 0.00 0.00 81 1012.1
20260508030640 40 41 0.0 0.0 0.00 0.00 0.00 81 1012.1
20260508030153 40 41 0.0 0.0 0.00 0.00 0.00 81 1012.1
20260508025653 40 42 0.0 0.0 0.00 0.00 0.00 81 1012.1
20260508025156 40 42 0.0 0.0 0.00 0.00 0.00 81 1012.1
20260508024641 40 41 0.0 0.0 0.00 0.00 0.00 81 1012.1